Вернуться в каталог

STARLINK-2538

АктивенСвязьVLEO
NORAD 48300·PAYLOAD·🇺🇸 United States

Запущен Apr 29, 2021 с Cape Canaveral Space Force Station

Loading…

Ближайшие Пролёты (ближайшие 24 часа)

TLE

СвежийSource: CelesTrak SupGP

Эпоха: Sep 15, 2026, 01:17 UTC

1 48300C 21036AA  26258.05395833  .00032980  00000+0  10599-2 0  2581
2 48300  53.1578 286.9035 0001193  88.7673  18.0442 15.31704438    18

Отслеживайте STARLINK-2538 в реальном времени с AllMySat

Download on the App Store